SCP
0 0 0 1 1 0 0 0 0 0 0 0 1 1 1 1 1 1 1 1 1 1 1 1 1 1 1 1 1 1 1 1 2 2 3 3 3 3 2 2 2 2 2 1
0 0 0 1 1 1 0 0 0 0 0 1 1 1 1 1 1 1 1 1 1 1 1 1 1 1 1 1 1 1 1 1 2 2 2 2 2 2 2 2 1 2 2 2
0 0 0 1 1 1 1 0 0 0 1 1 1 1 1 1 1 1 0 0 0 0 0 1 1 1 1 1 1 1 1 1 1 2 2 1 1 1 1 1 1 1 1 1
0 0 0 0 0 1 1 1 1 1 1 1 1 1 1 1 1 1 0 0 0 0 0 0 0 1 1 1 1 1 1 1 2 1 1 1 1 1 1 1 1 1 1 1
0 0 0 0 0 1 1 1 1 1 1 1 1 1 1 1 1 1 0 0 0 0 0 0 0 0 1 1 1 1 2 2 2 1 1 1 1 1 1 1 1 1 1 1
0 0 0 0 0 1 1 1 1 1 1 1 1 1 1 1 1 1 1 0 0 0 0 0 0 0 1 1 1 1 1 1 1 1 1 1 1 1 1 1 1 1 1 1
0 0 0 0 0 1 1 1 1 0 0 1 1 1 1 1 1 1 1 1 0 0 0 0 0 0 0 1 1 1 1 1 1 1 1 1 1 1 1 1 1 1 1 1
0 0 0 0 0 0 0 0 0 0 0 1 1 1 0 0 1 1 1 1 0 0 0 0 0 0 0 0 0 1 1 1 1 1 1 1 1 0 0 1 1 1 1 1
0 0 0 0 0 0 0 1 0 0 0 0 0 0 0 0 1 0 0 0 0 0 0 0 0 0 0 0 0 0 0 0 0 0 0 0 0 0 0 0 0 1 1 1
0 0 0 0 0 0 1 1 0 0 0 0 0 0 1 0 0 0 0 0 0 0 0 0 0 0 0 0 0 0 0 0 0 0 0 0 0 0 0 0 0 0 0 0
0 0 0 0 0 0 0 0 0 0 0 0 0 0 0 0 0 0 0 0 0 0 0 0 0 0 0 0 0 0 0 0 0 0 0 0 0 0 0 0 0 0 0 0
0 0 0 0 0 0 0 0 0 0 0 0 0 0 0 0 0 0 0 0 0 0 0 0 0 0 0 0 0 0 0 0 0 0 0 0 0 0 0 0 0 0 0 0
0 0 0 0 0 0 0 0 0 0 0 0 0 0 0 0 0 0 0 0 0 0 0 0 0 0 0 0 0 0 0 0 0 0 0 0 0 0 0 0 0 0 0 0
0 0 0 0 0 0 0 0 0 0 0 0 0 0 0 0 0 0 0 0 0 0 0 0 0 0 0 0 0 0 0 0 0 0 0 0 0 0 0 0 0 0 0 0
0 0 0 0 0 0 0 0 0 0 0 0 0 0 0 0 0 0 0 0 0 0 0 0 0 0 0 0 0 0 0 0 0 0 0 0 0 0 0 0 0 0 0 0
0 0 0 0 0 0 0 0 0 0 0 0 0 0 0 0 0 0 0 0 0 0 0 0 0 0 0 0 0 0 0 0 0 0 0 0 0 0 0 0 0 0 0 0
0 0 0 0 0 0 0 0 0 0 0 0 0 0 0 0 0 0 0 0 0 0 0 0 0 0 0 0 0 0 0 0 0 0 0 0 0 0 0 0 0 0 0 0
0 0 0 0 0 0 0 0 0 0 0 0 0 0 0 0 0 0 0 0 0 0 0 0 0 0 0 0 0 0 0 0 0 0 0 0 0 0 0 0 0 0 0 0
0 0 0 0 0 0 0 0 0 0 0 0 0 0 0 0 0 0 0 0 0 0 0 0 0 0 0 0 0 0 0 0 0 0 0 0 0 0 0 0 0 0 0 0
0 0 0 0 0 0 0 0 0 0 0 0 0 0 0 0 0 0 0 0 0 0 0 0 0 0 0 0 0 0 0 0 0 0 0 0 0 0 0 0 0 0 0 0
0 0 0 0 0 0 0 0 0 0 0 0 0 0 0 0 0 0 0 0 0 0 0 0 0 0 0 0 0 0 0 0 0 0 0 0 0 0 0 0 0 0 0 0
0 0 0 0 0 0 0 0 0 0 0 0 0 0 0 0 0 0 0 0 0 0 0 0 0 0 0 0 0 0 0 0 0 0 0 0 0 0 0 0 0 0 0 0
0 0 0 0 0 0 0 0 0 0 0 0 0 0 0 0 0 0 0 0 0 0 0 0 0 0 0 0 0 0 0 0 0 0 0 0 0 0 0 0 0 0 0 0
0 0 0 0 0 0 0 0 0 0 0 0 0 0 0 0 0 0 0 0 0 0 0 0 0 0 0 0 0 0 0 0 0 0 0 0 0 0 0 0 0 0 0 0
0 0 0 0 0 0 0 0 0 0 0 0 0 0 0 0 0 0 0 0 0 0 0 0 0 0 0 0 0 0 0 0 0 0 0 0 0 0 0 0 0 0 0 0
0 0 0 0 0 0 0 0 0 0 0 0 0 0 0 0 0 0 0 0 0 0 0 0 0 0 0 0 0 0 0 0 0 0 0 0 0 0 0 0 0 0 0 0
0 0 0 0 0 0 0 0 0 0 0 0 0 0 0 0 0 0 0 0 0 0 0 0 0 0 0 0 0 0 0 0 0 0 0 0 0 0 0 0 0 0 0 0
Wind_Speed
6 6 4 5 5 6 7 8 8 8 6 6 3 2 2 3 5 5 5 4 4 4 4 4 4 4 5 5 5 5 6 6 6 5 5 5 6 6 6 7 8 7 7 7
4 5 6 6 7 7 7 6 6 4 5 3 2 3 4 4 6 6 5 4 4 4 4 4 4 4 4 4 5 5 6 6 5 4 4 5 5 6 6 6 6 6 7 8
4 4 2 7 8 9 6 6 8 8 7 5 4 4 4 4 5 6 5 5 4 3 2 2 3 3 4 3 4 5 5 4 4 4 4 4 4 4 5 6 5 6 6 7
2 1 8 9 4 6 7 5 5 4 5 7 7 7 6 5 5 5 5 5 5 4 3 2 2 3 3 4 5 5 4 4 4 4 4 3 3 4 4 4 4 5 5 6
3 4 6 6 3 2 4 3 4 8 8 8 10 9 7 6 7 6 6 5 5 5 5 4 4 4 6 5 5 5 4 3 3 3 3 3 3 3 2 2 3 3 2 4
3 3 6 6 2 1 2 3 2 7 9 9 7 5 3 5 8 8 8 7 7 7 8 8 5 5 8 7 6 5 3 3 3 3 3 3 2 1 1 1 1 1 1 1
4 4 6 4 3 0 4 5 3 5 7 6 4 6 9 9 9 8 8 9 9 9 10 8 7 8 10 8 6 5 5 5 5 4 3 2 2 2 2 1 2 1 1 1
3 4 7 3 2 2 4 1 3 4 6 10 12 14 12 11 10 10 10 10 10 10 10 9 8 9 10 8 5 5 6 7 7 6 4 4 4 3 3 2 2 1 1 1
5 6 4 3 3 2 1 3 4 6 9 15 15 13 12 11 11 10 10 9 9 10 11 10 9 9 10 6 5 7 8 7 6 7 6 5 5 4 3 3 2 2 1 1
3 4 3 3 2 2 4 5 7 10 12 14 16 14 13 11 10 9 9 8 8 10 11 9 9 9 8 6 6 8 8 7 6 6 6 6 5 4 4 3 2 2 2 1
3 3 3 4 3 5 7 9 11 12 12 13 16 14 13 11 10 9 8 7 8 9 9 8 8 9 8 7 7 9 8 7 6 6 5 5 5 4 3 2 2 1 1 1
2 2 0 2 4 7 10 10 11 15 14 12 13 14 13 11 9 8 8 7 8 9 9 8 8 8 8 7 7 7 7 6 5 4 4 4 4 5 7 6 7 7 5 3
1 2 4 5 7 8 10 11 12 13 14 14 12 12 12 10 8 8 8 8 8 7 7 7 8 8 7 6 7 8 6 5 4 4 4 4 4 4 4 6 8 9 8 8
4 5 6 6 7 9 12 14 14 15 13 12 11 11 11 10 9 8 7 6 7 7 7 7 8 7 6 5 6 7 6 6 5 4 4 3 3 3 3 3 4 4 6 7
6 7 8 9 10 11 12 14 15 14 13 12 10 10 10 10 9 7 6 6 7 8 7 7 7 6 5 5 6 6 5 4 4 3 3 3 3 3 3 3 3 3 4 5
9 10 11 13 13 12 12 14 14 12 11 11 10 9 9 9 8 7 6 6 7 7 5 6 5 4 4 5 5 5 4 6 5 4 4 4 4 3 3 3 3 3 4 4
9 9 10 12 12 11 11 11 11 11 10 10 9 9 9 9 9 8 7 6 6 5 4 4 4 4 4 5 5 4 4 5 7 5 4 3 3 3 3 3 3 3 4 5
8 8 9 10 11 11 10 10 10 10 9 8 8 8 8 8 7 5 5 5 6 6 5 4 4 4 5 5 4 3 3 3 3 3 3 3 3 3 3 3 3 3 4 4
11 11 10 10 10 9 9 8 8 7 7 8 8 8 7 6 5 5 4 5 5 4 3 4 6 6 5 5 5 3 3 4 4 3 3 4 4 3 3 3 3 4 4 4
11 11 11 10 10 9 9 8 8 7 6 7 8 7 7 5 5 5 5 4 2 1 1 2 4 4 4 4 5 3 3 3 3 3 3 3 3 3 3 4 4 4 4 4
10 11 11 10 9 8 7 7 7 7 6 6 7 6 5 4 4 4 4 2 1 1 2 3 2 2 2 3 4 3 3 3 3 2 3 3 3 3 3 4 4 4 4 5
8 9 9 9 9 8 6 6 7 7 6 6 6 5 5 4 3 2 1 1 0 1 2 1 2 2 3 4 3 3 3 3 3 2 2 2 3 3 3 4 4 4 4 5
7 7 8 7 7 7 6 6 6 6 6 5 4 4 3 2 1 1 0 1 1 2 2 1 2 4 5 3 3 3 3 3 3 3 2 3 3 3 3 4 4 4 5 5
6 6 6 6 7 7 6 5 5 5 5 4 3 3 2 2 1 1 0 1 2 3 2 2 4 5 5 3 3 3 3 3 3 3 3 3 3 3 3 4 4 4 5 6
6 6 6 6 6 4 4 4 5 5 4 3 3 3 2 1 1 1 1 2 4 4 3 4 6 6 4 3 3 3 2 2 2 2 3 3 3 3 3 4 4 4 5 5
5 4 4 3 3 3 3 3 3 2 2 2 2 2 2 2 2 2 2 3 4 5 4 3 3 4 3 3 3 3 3 3 3 3 3 3 3 3 3 4 5 4 4 5
5 4 4 4 3 2 3 3 3 2 2 2 1 2 2 2 3 3 3 3 3 3 3 3 3 3 3 3 3 3 3 3 3 3 3 3 3 3 3 4 4 4 4 5
Wind_Direction
234 244 228 229 233 194 191 195 196 226 224 251 235 195 166 149 129 121 121 134 157 163 158 155 157 164 174 174 168 166 166 176 192 191 186 187 192 195 195 198 205 200 201 205
258 251 234 244 244 224 218 207 215 226 251 230 145 120 113 125 129 124 124 135 147 149 150 165 175 173 173 176 168 163 171 183 180 167 171 187 199 196 196 203 207 201 204 205
242 257 263 246 227 217 212 205 186 204 216 153 134 120 111 111 115 121 120 117 114 119 140 164 176 172 173 173 152 152 166 167 159 164 178 194 197 194 199 204 204 207 211 208
217 181 230 243 236 214 208 220 198 183 161 153 136 107 80 77 101 98 94 95 94 97 98 98 106 123 128 118 125 135 138 142 147 163 185 187 184 195 204 199 200 208 213 214
170 220 266 284 265 204 189 240 189 163 149 135 126 100 67 57 76 84 81 81 80 82 84 81 87 108 109 104 110 114 122 131 142 155 158 156 181 196 195 197 207 206 195 204
177 211 237 250 277 285 129 253 179 155 155 150 142 122 114 84 82 79 72 73 76 76 73 67 58 88 98 93 91 88 88 90 92 105 117 134 168 157 150 174 192 171 148 171
208 233 261 269 291 340 187 226 154 150 152 148 132 121 116 101 84 77 73 70 70 68 64 55 55 77 83 80 74 70 75 74 69 72 86 88 82 76 85 93 94 93 87 55
194 219 253 315 329 209 221 142 114 119 124 115 110 109 106 98 88 80 74 68 69 71 62 49 51 73 78 70 63 70 73 70 62 55 58 62 69 64 68 79 81 66 62 25
206 230 271 301 257 262 161 122 114 117 123 122 116 111 106 97 90 82 78 73 71 74 66 52 47 63 70 51 56 69 68 61 56 54 52 52 60 61 60 59 64 52 57 41
263 280 307 338 4 60 96 106 108 115 119 118 115 113 106 100 93 86 77 73 73 74 70 56 47 53 56 49 60 70 65 56 52 54 49 47 50 52 59 53 50 49 59 47
265 292 5 25 49 91 98 101 102 101 107 114 115 112 109 103 95 90 83 74 74 77 72 59 50 48 41 42 61 67 61 53 48 46 46 44 46 46 46 42 43 59 35 34
258 297 20 27 60 92 102 105 109 110 104 99 106 109 105 100 97 93 87 81 78 74 71 61 54 46 35 37 57 67 60 49 45 45 45 46 46 42 41 45 42 54 54 51
198 79 87 80 75 87 99 99 102 105 107 104 101 104 104 100 94 92 87 84 81 77 72 66 59 47 31 36 55 62 61 52 46 46 45 42 43 47 33 24 35 40 38 37
96 98 81 72 80 93 101 100 97 95 95 98 100 99 100 98 93 90 87 85 84 79 70 65 61 43 23 41 59 59 57 56 55 48 43 41 43 44 43 37 20 11 17 21
63 84 99 96 88 92 99 102 98 95 94 92 94 98 100 98 95 89 86 88 83 73 64 62 57 33 17 46 59 56 54 51 49 48 46 45 45 46 44 39 29 8 1 4
90 88 91 91 90 92 95 99 100 101 101 99 97 96 98 98 94 85 75 79 84 76 62 60 50 18 22 48 56 51 48 55 58 51 43 40 39 38 32 28 21 13 4 354
105 100 100 98 94 92 91 96 102 104 102 100 101 101 97 92 84 75 68 70 83 81 66 60 41 26 41 49 58 55 49 50 54 54 46 39 34 30 23 18 12 4 355 352
96 103 109 112 112 105 99 97 100 101 103 106 102 97 96 98 97 92 87 84 77 62 46 36 39 47 46 49 56 57 57 53 49 48 42 37 30 24 20 15 7 1 351 351
95 97 98 101 104 104 102 101 100 100 102 104 100 95 94 97 99 97 92 86 81 66 22 20 42 50 43 42 57 58 61 58 49 40 36 31 28 24 19 13 5 357 349 346
95 95 95 94 92 97 100 99 99 95 96 102 101 95 89 87 91 92 87 77 66 74 10 40 50 46 37 41 61 63 64 60 50 34 25 20 15 11 10 6 1 352 345 341
101 99 96 96 90 86 91 98 100 95 90 97 103 105 103 93 91 96 96 80 1 29 56 56 54 45 39 52 58 62 61 57 48 35 24 14 8 5 3 358 351 344 341 338
98 99 98 97 93 83 74 82 92 94 89 88 92 98 99 93 88 78 76 147 248 90 79 61 50 54 61 60 56 55 51 46 38 32 24 15 9 3 359 356 350 346 344 339
94 97 96 94 96 91 76 72 80 92 97 100 106 113 121 132 136 125 37 332 48 97 84 71 69 69 64 60 60 57 50 42 35 28 21 15 10 5 358 354 351 349 347 345
92 92 94 95 93 89 82 71 75 84 91 91 89 93 103 100 58 42 133 110 90 86 75 71 73 71 69 67 64 60 51 42 33 30 26 20 13 5 359 354 354 354 351 347
93 90 93 97 95 96 99 91 81 75 74 68 59 51 49 70 102 67 59 71 81 78 68 64 67 69 69 65 60 56 49 40 37 35 30 22 13 7 5 2 0 355 350 350
86 90 91 98 112 121 118 109 100 92 87 75 47 33 33 40 57 64 72 80 82 78 72 61 57 62 63 62 59 51 37 29 34 36 29 20 14 13 8 5 2 359 354 350
79 78 81 75 68 85 103 106 108 102 98 103 72 32 39 50 60 67 75 77 76 74 70 63 60 63 65 64 61 50 40 34 31 28 23 21 16 11 8 4 0 357 354 353